#timestamp,LO_Frequency,Hit,StdDev 
1634482815.3,286047000.1,N
1634482835.1,286046999.0,N
1634482855.9,286046998.4,N
1634482875.7,286047000.2,N
1634482895.5,286046998.2,N
1634482915.4,286047003.6,N
1634482935.2,286047002.1,N
1634482955.0,286047000.4,N
1634482955.9,286047000.4,N
1634482975.8,286047000.6,N
1634482995.6,286047000.7,N
1634483015.4,286047000.2,N
1634483035.3,286047001.2,N
1634483055.1,286046998.1,N
1634483075.8,286046999.3,N
1634483095.7,286046999.8,N
1634483115.5,286046998.2,N
1634483135.3,286046999.7,N
1634483155.2,286046999.7,N
1634483175.0,286046999.4,N
1634483175.9,286046999.4,N
1634483195.7,286046996.8,N
1634483215.6,286046998.8,N
1634483235.4,286046999.6,N
1634483255.2,286046998.9,N
1634483275.1,286046996.9,N
1634483276.0,286046996.9,N
1634483295.8,286046996.8,N
1634483315.6,286047001.1,N
1634483335.5,286047000.6,N
1634483355.3,286047000.4,N
1634483375.1,286046998.4,N
1634483395.9,286047000.9,N
1634483415.7,286046999.9,N
1634483435.5,286047002.4,N
1634483455.4,286047000.2,N
1634483475.2,286047002.0,N
1634483495.0,286047000.1,N
1634483495.9,286047000.1,N
1634483515.8,286047000.3,N
1634483535.6,286046999.0,N
1634483555.4,286046999.5,N
1634483575.3,286046998.6,N
1634483595.1,286046998.2,N
1634483615.8,286046998.3,N
1634483635.7,286047002.8,N
1634483655.5,286047001.2,N
1634483675.3,286047000.9,N
1634483695.2,286046998.1,N
1634483715.0,286046998.3,N
1634483715.9,286046998.3,N
1634483735.7,286047000.8,N
1634483755.6,286046998.6,N
1634483775.4,286046997.0,N
1634483795.2,286047000.0,N
1634483815.1,286047001.8,N
1634483816.0,286047001.8,N
1634483835.8,286047001.2,N
1634483855.6,286047000.5,N
1634483875.5,286046996.5,N
1634483895.3,286046996.5,N
1634483915.1,286046998.8,N
1634483935.9,286046997.7,N
1634483955.7,286046997.9,N
1634483975.5,286046997.7,N
1634483995.4,286046996.6,N
1634484015.2,286046997.3,N
1634484035.0,286046998.0,N
1634484035.9,286046998.0,N
1634484055.8,286046997.9,N
1634484075.6,286046997.0,N
1634484095.4,286046997.3,N
1634484115.3,286046996.6,N
1634484135.1,286046997.8,N
1634484155.8,286046997.4,N
1634484175.7,286046998.4,N
1634484195.5,286046998.5,N
1634484215.3,286046996.6,N
1634484235.2,286046999.2,N
1634484255.9,286046998.5,N
1634484275.7,286046996.6,N
1634484295.6,286046999.5,N
1634484315.4,286046998.4,N
1634484335.2,286046998.4,N
1634484355.1,286046999.6,N
1634484356.0,286046999.6,N
1634484375.8,286047001.2,N
1634484395.6,286047000.9,N
1634484415.5,286046996.9,N
1634484435.3,286046998.8,N
1634484455.1,286046998.4,N
1634484475.9,286046998.3,N
1634484495.7,286046998.3,N
1634484515.5,286046999.2,N
1634484535.4,286046997.2,N
1634484555.2,286046997.9,N
1634484575.0,286046996.1,Y
1634484575.9,286046996.1,P
1634484595.8,286046996.8,N
1634484615.6,286046996.6,P
1634484635.4,286046998.7,N
1634484655.3,286046996.5,Y
1634484675.1,286047000.1,P
1634484695.8,286047000.8,N
1634484715.7,286047000.1,N
1634484735.5,286047002.5,N
1634484755.3,286047000.6,N
1634484775.2,286047000.5,N
1634484795.9,286046999.7,N
1634484815.7,286047002.2,N
1634484835.6,286047000.3,N
1634484855.4,286047000.3,N
1634484875.2,286046999.9,N
1634484895.1,286047002.5,N
1634484896.0,286047002.5,N
1634484915.8,286047001.8,N
1634484935.6,286047004.0,N
1634484955.5,286047001.6,N
1634484975.3,286046999.7,N
1634484995.1,286047002.2,N
1634485015.9,286047002.1,N
1634485035.7,286047001.6,N
1634485055.5,286047002.4,N
1634485075.4,286047000.5,N
1634485095.2,286047000.0,N
1634485115.0,286047002.3,N
1634485115.9,286047002.3,N
1634485135.8,286047002.0,N
1634485155.6,286046999.8,N
1634485175.4,286047004.0,N
1634485195.3,286047003.8,N
1634485215.1,286047000.2,N
1634485216.0,286047000.2,N
1634485235.8,286047000.0,N
1634485255.7,286046999.8,N
1634485275.5,286047002.4,N
1634485295.3,286047000.8,N
1634485315.2,286046999.1,N
1634485335.9,286046997.2,N
1634485355.7,286046996.5,N
1634485375.6,286046998.4,N
1634485395.4,286046998.5,N
1634485415.2,286046998.7,N
1634485435.1,286046999.2,N
1634485436.0,286046999.2,N
1634485455.8,286046996.8,N
1634485475.6,286047002.4,N
1634485495.5,286047000.5,N
1634485515.3,286047002.4,N
1634485535.1,286047001.9,N
1634485555.9,286047001.9,N
1634485575.7,286047004.0,N
1634485595.5,286047002.0,N
1634485615.4,286047002.5,N
1634485635.2,286046999.7,N
1634485655.0,286047002.1,N
1634485655.9,286047002.1,N
1634485675.8,286047000.9,N
1634485695.6,286046998.4,N
1634485715.4,286047000.8,N
1634485735.2,286047000.4,N
1634485755.1,286047000.3,N
1634485756.0,286047000.3,N
1634485775.8,286047000.1,N
1634485795.6,286047001.0,N
1634485815.5,286047001.2,N
1634485835.3,286046999.3,N
1634485855.1,286046999.6,N
1634485875.9,286046999.1,N
1634485895.7,286046998.2,N
1634485915.5,286046998.7,N
1634485935.4,286047000.6,N
1634485955.2,286046998.5,N
1634485975.0,286047000.6,N
1634485975.9,286047000.6,N
1634485995.8,286046998.7,N
1634486015.6,286046998.7,N
1634486035.4,286046998.5,N
1634486055.3,286046999.4,N
1634486075.1,286046996.9,N
1634486095.8,286046997.1,N
1634486115.7,286046997.0,N
1634486135.5,286046997.6,N
1634486155.3,286046996.8,N
1634486175.2,286046995.3,Y
1634486195.0,286046997.5,P
1634486195.9,286046997.5,N
1634486215.7,286046997.1,P
1634486235.6,286046998.5,N
1634486255.4,286047000.7,N
1634486275.2,286047000.1,N
1634486295.1,286047001.5,N
1634486296.0,286047001.5,N
1634486315.8,286047001.9,N
1634486335.6,286047002.1,N
1634486355.5,286047004.4,N
1634486375.3,286047001.9,N
1634486395.1,286047002.3,N
